RH
61 57 50 47 46 52 54 44 45 49 52 53 50 48 44 33 27 26 21 20 19 18 18 18 15 13 12 12 9 8 8 10 10 9 9 9 9 12 14 14 26 31 28
54 54 50 48 48 55 57 56 45 44 47 51 52 51 51 42 30 24 28 28 26 22 19 17 16 19 12 9 8 9 10 10 9 8 8 8 10 11 18 28 28 41 34
50 52 50 47 48 51 55 55 56 46 41 44 50 51 51 53 48 35 24 24 28 30 28 36 29 19 11 10 12 12 11 10 9 9 10 12 12 12 21 34 44 47 34
46 46 46 41 39 42 48 50 52 54 50 39 37 44 51 56 57 54 42 28 23 25 28 27 27 23 15 15 19 18 20 18 13 12 11 14 16 11 15 28 36 40 36
39 39 41 43 39 38 39 39 41 43 45 48 39 39 44 52 57 57 55 49 36 28 27 28 29 27 19 12 25 26 23 25 22 16 13 13 14 13 13 15 18 21 17
32 33 33 36 38 39 37 36 37 43 44 46 49 44 40 41 48 59 60 55 43 32 26 31 32 24 16 11 17 29 26 24 24 16 14 15 20 25 24 23 23 21 24
26 25 22 22 23 25 30 33 33 34 38 41 45 50 52 43 41 45 57 61 50 39 30 30 32 28 18 11 11 26 29 27 21 21 21 32 32 42 44 35 35 42 47
20 18 19 18 18 19 19 21 24 28 31 32 35 43 52 54 53 43 44 51 51 47 39 34 38 32 21 15 11 16 23 24 20 21 34 45 59 55 63 55 50 49 48
20 18 17 17 15 15 15 16 17 19 23 25 28 31 36 44 54 60 57 48 46 50 52 51 52 36 26 22 14 12 15 18 17 25 34 44 57 57 63 63 60 59 46
20 20 19 16 12 12 11 11 11 12 13 16 22 25 30 34 40 51 64 69 61 57 57 57 57 42 34 31 18 13 12 13 11 29 31 39 44 56 52 51 52 46 42
20 20 19 16 15 14 13 12 12 11 11 10 9 13 22 27 33 40 49 61 68 70 69 67 65 51 40 43 35 22 14 12 12 25 35 39 39 39 37 38 40 45 40
17 17 17 17 16 16 16 15 14 13 12 12 11 10 10 19 27 33 41 49 55 64 71 72 71 65 49 54 57 45 30 16 12 20 39 44 45 53 43 41 39 37 37
15 16 17 17 17 17 17 17 16 15 15 14 14 13 13 12 19 27 33 40 48 51 57 66 69 71 65 59 63 61 51 41 22 18 30 40 49 58 48 44 39 35 31
15 14 16 16 17 18 19 19 18 17 17 17 16 16 16 17 17 18 27 33 38 46 55 53 58 65 69 67 66 70 65 57 51 39 33 28 30 36 44 46 37 32 31
12 12 12 13 13 13 14 14 15 16 18 20 20 19 18 19 20 21 22 25 32 37 46 52 60 56 56 60 65 70 75 76 64 59 49 40 30 26 28 37 35 29 28
12 12 12 13 13 12 11 12 12 14 15 16 18 20 22 20 22 23 24 24 28 32 47 58 59 63 62 61 61 59 67 83 78 75 67 58 44 31 22 26 22 18 20
13 13 12 12 12 12 12 12 12 13 13 11 12 13 15 18 21 23 26 25 24 27 32 41 62 67 66 67 65 68 69 70 79 83 82 77 66 54 37 26 18 17 17
13 13 13 13 12 12 12 12 12 13 13 11 10 10 11 13 15 17 19 23 23 23 23 26 34 57 65 70 74 72 73 74 74 72 76 85 82 75 63 49 30 15 24
16 15 14 14 13 12 13 13 13 13 14 14 12 9 10 11 12 14 16 17 20 23 24 24 27 27 39 59 67 71 77 79 79 79 76 75 85 89 83 74 57 35 34
15 18 17 15 15 14 15 15 16 15 15 16 15 11 12 13 14 14 15 17 18 19 21 24 25 26 27 28 37 58 70 74 79 81 82 82 77 79 95 87 82 67 48
17 17 20 26 22 19 18 18 17 17 18 18 18 16 14 16 17 17 16 17 18 19 20 20 23 26 30 29 34 37 41 65 73 78 81 83 82 78 81 94 92 90 73
27 25 26 29 33 35 29 26 24 22 20 18 19 19 16 19 20 20 20 19 19 19 20 21 22 23 26 32 37 38 39 38 50 64 68 74 78 81 85 83 88 93 84
34 34 37 39 40 40 43 39 34 29 25 21 20 21 19 20 21 22 21 21 21 21 21 22 23 24 25 27 34 41 45 44 38 43 64 75 76 76 78 79 82 84 81
35 39 44 45 45 44 44 41 42 37 33 28 26 26 24 24 25 27 26 25 25 23 24 25 26 26 28 28 28 35 41 46 46 39 36 48 64 74 82 81 76 80 83
38 42 46 48 49 48 48 48 44 44 40 36 34 31 27 28 30 32 31 31 30 28 28 28 29 29 30 31 32 32 34 41 43 54 49 41 46 55 68 71 81 79 83
45 47 50 56 58 59 57 57 54 53 51 44 41 37 36 37 37 36 37 36 35 32 29 30 31 31 30 31 34 35 36 38 40 45 48 49 51 48 51 62 60 78 70